Location: Battersea Observatory
(44.4318°N, 76.3841°W)
Time: 12:20:22
(UTC-05:00)

Tiangong - Pass Details

Date: 14 December 2021
Orbit: 383 x 386 km, 41.5° (Epoch: 19 January)

Event Time Altitude Azimuth Distance (km) Brightness Sun altitude
Rises 18:51:24 0° 269° (W) 2,276 6.3 -24.9°
Reaches altitude 10° 18:53:33 10° 262° (W) 1,418 5.0 -25.3°
Enters shadow 18:55:12 25° 244° (WSW) 833 3.4 -25.6°
